| time (UTC) | temp F | wind direction | speed knots | gust knots | rain 1hr in | rain 24hr in | rain mn in | humidity % | barometer mb |
| 20260508023740 | 46 | 293 | 4.3 | 13.0 | 0.01 | 0.27 | 0.27 | 99 | 981.2 |
| 20260508023228 | 46 | 225 | 0.9 | 13.0 | 0.01 | 0.27 | 0.27 | 99 | 981.3 |
| 20260508022718 | 46 | 270 | 3.5 | 13.0 | 0.01 | 0.27 | 0.27 | 99 | 981.4 |
| 20260508015617 | 46 | 203 | 4.3 | 13.0 | 0.02 | 0.27 | 0.27 | 99 | 981.2 |
| 20260508015107 | 46 | 203 | 3.5 | 18.2 | 0.02 | 0.27 | 0.27 | 99 | 981.4 |
| 20260508014557 | 46 | 225 | 3.5 | 18.2 | 0.02 | 0.27 | 0.27 | 99 | 981.4 |
| 20260508014047 | 47 | 293 | 1.7 | 13.0 | 0.01 | 0.26 | 0.26 | 99 | 981.7 |
| 20260508013536 | 47 | 270 | 3.5 | 13.0 | 0.01 | 0.26 | 0.26 | 99 | 981.5 |
| 20260508012007 | 47 | 248 | 3.5 | 13.0 | 0.04 | 0.26 | 0.26 | 99 | 981.9 |
| 20260508011456 | 47 | 248 | 3.5 | 11.3 | 0.04 | 0.26 | 0.26 | 99 | 981.6 |
| 20260508010947 | 47 | 225 | 4.3 | 12.2 | 0.02 | 0.25 | 0.25 | 99 | 982.0 |
| 20260508010436 | 47 | 45 | 3.5 | 17.4 | 0.02 | 0.25 | 0.25 | 99 | 982.0 |
| 20260508005926 | 48 | 248 | 5.2 | 17.4 | 0.04 | 0.25 | 0.25 | 99 | 982.2 |
| 20260508005417 | 48 | 248 | 3.5 | 13.9 | 0.04 | 0.25 | 0.25 | 99 | 982.0 |
| 20260508003846 | 49 | 225 | 4.3 | 12.2 | 0.05 | 0.25 | 0.25 | 99 | 982.1 |
| 20260508003336 | 49 | 338 | 2.6 | 9.6 | 0.05 | 0.25 | 0.25 | 99 | 982.1 |
| 20260508002317 | 50 | 293 | 1.7 | 11.3 | 0.05 | 0.24 | 0.24 | 99 | 982.4 |
| 20260508001806 | 50 | 203 | 1.7 | 11.3 | 0.04 | 0.22 | 0.22 | 99 | 982.2 |
| 20260508001255 | 50 | 225 | 3.5 | 11.3 | 0.05 | 0.22 | 0.22 | 99 | 982.3 |
| 20260508000235 | 50 | 225 | 4.3 | 9.6 | 0.04 | 0.21 | 0.21 | 99 | 982.4 |
| 20260507235725 | 50 | 270 | 1.7 | 7.8 | 0.04 | 0.21 | 0.21 | 99 | 982.3 |
| 20260507235215 | 50 | 248 | 1.7 | 12.2 | 0.05 | 0.21 | 0.21 | 99 | 982.1 |
| 20260507234705 | 50 | 293 | 6.1 | 12.2 | 0.05 | 0.21 | 0.21 | 99 | 982.2 |
| 20260507233646 | 50 | 338 | 2.6 | 13.0 | 0.05 | 0.20 | 0.20 | 99 | 982.0 |
| 20260507233134 | 50 | 315 | 2.6 | 9.6 | 0.05 | 0.20 | 0.20 | 99 | 981.8 |
| 20260507232116 | 51 | 180 | 3.5 | 14.8 | 0.05 | 0.19 | 0.19 | 99 | 981.9 |
| 20260507231604 | 51 | 225 | 4.3 | 13.9 | 0.06 | 0.19 | 0.19 | 99 | 981.6 |
| 20260507230543 | 51 | 225 | 3.5 | 9.6 | 0.06 | 0.18 | 0.18 | 99 | 981.8 |
| 20260507230034 | 51 | 270 | 1.7 | 7.8 | 0.06 | 0.18 | 0.18 | 99 | 981.7 |
| 20260507225525 | 51 | 203 | 1.7 | 7.8 | 0.06 | 0.17 | 0.17 | 99 | 981.7 |
| 20260507225014 | 51 | 293 | 0.9 | 7.8 | 0.06 | 0.17 | 0.17 | 99 | 981.7 |
| 20260507224504 | 51 | 270 | 2.6 | 9.6 | 0.07 | 0.17 | 0.17 | 99 | 981.5 |
| 20260507223953 | 51 | 248 | 2.6 | 9.6 | 0.07 | 0.17 | 0.17 | 99 | 981.5 |
| 20260507223443 | 51 | 248 | 1.7 | 9.6 | 0.07 | 0.15 | 0.15 | 99 | 981.8 |
| 20260507222933 | 51 | 270 | 1.7 | 9.6 | 0.07 | 0.15 | 0.15 | 99 | 981.7 |
| 20260507222422 | 52 | 248 | 5.2 | 9.6 | 0.06 | 0.14 | 0.14 | 99 | 981.7 |
| 20260507221913 | 52 | 203 | 3.5 | 7.8 | 0.07 | 0.14 | 0.14 | 99 | 981.6 |
| 20260507221404 | 52 | 203 | 1.7 | 11.3 | 0.06 | 0.13 | 0.13 | 99 | 981.6 |
| 20260507220852 | 52 | 270 | 1.7 | 11.3 | 0.05 | 0.12 | 0.12 | 99 | 981.4 |
| 20260507220343 | 52 | 203 | 1.7 | 7.8 | 0.05 | 0.12 | 0.12 | 99 | 981.3 |
| 20260507215832 | 52 | 225 | 1.7 | 12.2 | 0.05 | 0.12 | 0.12 | 99 | 981.4 |
| 20260507215322 | 52 | 248 | 1.7 | 12.2 | 0.04 | 0.11 | 0.11 | 99 | 981.4 |
| 20260507214302 | 52 | 293 | 3.5 | 13.0 | 0.05 | 0.09 | 0.09 | 99 | 981.8 |
| 20260507213752 | 52 | 293 | 1.7 | 7.0 | 0.05 | 0.09 | 0.09 | 99 | 981.4 |
| 20260507213241 | 52 | 158 | 1.7 | 7.8 | 0.07 | 0.08 | 0.08 | 99 | 981.2 |
| 20260507212732 | 52 | 248 | 0.9 | 7.8 | 0.07 | 0.08 | 0.08 | 99 | 981.3 |
| 20260507212222 | 52 | 248 | 2.6 | 9.6 | 0.06 | 0.07 | 0.07 | 99 | 981.0 |
| 20260507211711 | 52 | 203 | 1.7 | 9.6 | 0.06 | 0.07 | 0.07 | 99 | 980.7 |
| 20260507211201 | 52 | 293 | 0.9 | 9.6 | 0.06 | 0.07 | 0.07 | 99 | 980.4 |
| 20260507210651 | 52 | 180 | 1.7 | 9.6 | 0.06 | 0.07 | 0.07 | 99 | 980.5 |
| 20260507210141 | 52 | 293 | 1.7 | 13.0 | 0.06 | 0.07 | 0.07 | 99 | 980.4 |
| 20260507205631 | 52 | 158 | 3.5 | 14.8 | 0.06 | 0.07 | 0.07 | 98 | 980.4 |
| 20260507205121 | 52 | 248 | 4.3 | 14.8 | 0.05 | 0.06 | 0.06 | 98 | 980.4 |
| 20260507204611 | 53 | 270 | 4.3 | 7.8 | 0.05 | 0.06 | 0.06 | 98 | 980.5 |
| 20260507204101 | 54 | 203 | 1.7 | 7.0 | 0.04 | 0.05 | 0.05 | 99 | 980.6 |
| 20260507203551 | 55 | 248 | 1.7 | 1.7 | 0.01 | 0.02 | 0.02 | 98 | 980.9 |
| 20260507203040 | 55 | 203 | 0.0 | 1.7 | 0.00 | 0.01 | 0.01 | 98 | 980.7 |
| 20260507202530 | 56 | 180 | 0.0 | 1.7 | 0.00 | 0.01 | 0.01 | 99 | 980.9 |
| 20260507201517 | 56 | 135 | 1.7 | 3.5 | 0.00 | 0.01 | 0.01 | 99 | 981.5 |
| 20260507201000 | 56 | 135 | 1.7 | 3.5 | 0.00 | 0.01 | 0.01 | 99 | 981.4 |
| 20260507195940 | 56 | 158 | 1.7 | 3.5 | 0.00 | 0.01 | 0.01 | 99 | 981.8 |
| 20260507195431 | 56 | 135 | 1.7 | 3.5 | 0.00 | 0.01 | 0.01 | 99 | 982.0 |
| 20260507194919 | 56 | 158 | 0.9 | 5.2 | 0.00 | 0.01 | 0.01 | 99 | 982.0 |
| 20260507194412 | 56 | 180 | 3.5 | 5.2 | 0.00 | 0.01 | 0.01 | 98 | 981.9 |
| 20260507193900 | 56 | 158 | 1.7 | 5.2 | 0.00 | 0.01 | 0.01 | 99 | 981.8 |
| 20260507193349 | 56 | 180 | 3.5 | 7.0 | 0.00 | 0.01 | 0.01 | 98 | 981.7 |
| 20260507192838 | 56 | 158 | 5.2 | 7.0 | 0.00 | 0.01 | 0.01 | 97 | 981.7 |
| 20260507192329 | 57 | 158 | 3.5 | 7.0 | 0.00 | 0.01 | 0.01 | 96 | 981.8 |
| 20260507191309 | 58 | 158 | 6.1 | 9.6 | 0.00 | 0.01 | 0.01 | 95 | 981.7 |
| 20260507190248 | 58 | 135 | 4.3 | 7.8 | 0.00 | 0.01 | 0.01 | 94 | 981.7 |
| 20260507185739 | 59 | 135 | 5.2 | 7.8 | 0.00 | 0.01 | 0.01 | 94 | 981.5 |
| 20260507185228 | 60 | 180 | 3.5 | 7.0 | 0.00 | 0.01 | 0.01 | 89 | 981.8 |
| 20260507184718 | 61 | 225 | 0.9 | 3.5 | 0.00 | 0.01 | 0.01 | 86 | 981.7 |
| 20260507184208 | 61 | 225 | 0.0 | 1.7 | 0.00 | 0.01 | 0.01 | 85 | 981.8 |
| 20260507183149 | 61 | 180 | 0.0 | 5.2 | 0.00 | 0.01 | 0.01 | 85 | 981.6 |
| 20260507182638 | 61 | 270 | 1.7 | 5.2 | 0.00 | 0.01 | 0.01 | 84 | 981.6 |
| 20260507182125 | 62 | 158 | 0.0 | 3.5 | 0.00 | 0.01 | 0.01 | 83 | 981.8 |
| 20260507181614 | 61 | 158 | 1.7 | 6.1 | 0.00 | 0.01 | 0.01 | 84 | 981.5 |
| 20260507181105 | 61 | 225 | 3.5 | 6.1 | 0.00 | 0.01 | 0.01 | 84 | 981.3 |
| 20260507180559 | 61 | 293 | 1.7 | 6.1 | 0.00 | 0.01 | 0.01 | 83 | 981.3 |
| 20260507180048 | 61 | 248 | 1.7 | 6.1 | 0.00 | 0.01 | 0.01 | 86 | 981.3 |
| 20260507175538 | 61 | 158 | 1.7 | 6.1 | 0.00 | 0.01 | 0.01 | 84 | 981.5 |
| 20260507175026 | 63 | 180 | 1.7 | 3.5 | 0.00 | 0.01 | 0.01 | 85 | 981.7 |
| 20260507174517 | 61 | 270 | 1.7 | 3.5 | 0.00 | 0.01 | 0.01 | 86 | 981.5 |
| 20260507174007 | 61 | 203 | 1.7 | 3.5 | 0.00 | 0.01 | 0.01 | 86 | 981.4 |
| 20260507173456 | 61 | 180 | 1.7 | 3.5 | 0.00 | 0.01 | 0.01 | 88 | 981.6 |
| 20260507172946 | 61 | 225 | 1.7 | 3.5 | 0.00 | 0.01 | 0.01 | 89 | 981.7 |
| 20260507172437 | 58 | 203 | 0.9 | 3.5 | 0.00 | 0.01 | 0.01 | 91 | 981.6 |
| 20260507171926 | 58 | 225 | 0.9 | 3.5 | 0.00 | 0.01 | 0.01 | 95 | 981.6 |
| 20260507171416 | 58 | 270 | 0.9 | 3.5 | 0.00 | 0.01 | 0.01 | 94 | 982.0 |
| 20260507170906 | 58 | 158 | 1.7 | 3.5 | 0.00 | 0.01 | 0.01 | 91 | 981.7 |
| 20260507170356 | 58 | 180 | 0.9 | 5.2 | 0.00 | 0.01 | 0.01 | 93 | 982.0 |
| 20260507165335 | 58 | 135 | 1.7 | 5.2 | 0.00 | 0.01 | 0.01 | 93 | 981.7 |
| 20260507164826 | 59 | 158 | 1.7 | 5.2 | 0.00 | 0.01 | 0.01 | 92 | 981.9 |
| 20260507164316 | 58 | 180 | 1.7 | 3.5 | 0.00 | 0.01 | 0.01 | 93 | 981.9 |
| 20260507163256 | 58 | 203 | 0.9 | 5.2 | 0.00 | 0.01 | 0.01 | 93 | 981.8 |
| 20260507162745 | 58 | 203 | 1.7 | 7.8 | 0.00 | 0.01 | 0.01 | 93 | 982.0 |
| 20260507162235 | 58 | 180 | 1.7 | 7.8 | 0.00 | 0.01 | 0.01 | 92 | 982.0 |
| 20260507161726 | 58 | 158 | 2.6 | 7.8 | 0.00 | 0.01 | 0.01 | 91 | 981.8 |
| 20260507161214 | 58 | 158 | 4.3 | 9.6 | 0.00 | 0.01 | 0.01 | 93 | 981.6 |
| 20260507160705 | 58 | 158 | 6.1 | 9.6 | 0.00 | 0.01 | 0.01 | 93 | 981.9 |
| 20260507160155 | 58 | 158 | 3.5 | 7.0 | 0.00 | 0.01 | 0.01 | 92 | 981.9 |
| 20260507155644 | 58 | 180 | 3.5 | 9.6 | 0.00 | 0.01 | 0.01 | 91 | 981.5 |
| 20260507155134 | 58 | 158 | 3.5 | 9.6 | 0.00 | 0.01 | 0.01 | 92 | 981.5 |
| 20260507154624 | 58 | 135 | 3.5 | 7.0 | 0.00 | 0.01 | 0.01 | 95 | 981.4 |
| 20260507154113 | 58 | 270 | 0.9 | 7.0 | 0.00 | 0.01 | 0.01 | 92 | 981.4 |
| 20260507153604 | 59 | 113 | 1.7 | 7.0 | 0.00 | 0.01 | 0.01 | 92 | 980.9 |
| 20260507153056 | 59 | 90 | 0.9 | 3.5 | 0.00 | 0.01 | 0.01 | 92 | 980.9 |
| 20260507152544 | 58 | 180 | 1.7 | 3.5 | 0.00 | 0.01 | 0.01 | 93 | 980.7 |
| 20260507152043 | 58 | 180 | 1.7 | 7.0 | 0.00 | 0.01 | 0.01 | 94 | 980.7 |
| 20260507151524 | 58 | 180 | 1.7 | 7.0 | 0.00 | 0.01 | 0.01 | 94 | 980.9 |
| 20260507151013 | 58 | 270 | 2.6 | 7.8 | 0.00 | 0.01 | 0.01 | 94 | 981.4 |
| 20260507150504 | 59 | 248 | 1.7 | 7.8 | 0.00 | 0.01 | 0.01 | 93 | 981.6 |
| 20260507145953 | 59 | 225 | 1.7 | 5.2 | 0.00 | 0.01 | 0.01 | 94 | 981.7 |
| 20260507145443 | 58 | 203 | 0.0 | 3.5 | 0.00 | 0.01 | 0.01 | 94 | 982.2 |
| 20260507144933 | 58 | 248 | 1.7 | 5.2 | 0.00 | 0.01 | 0.01 | 95 | 982.1 |
| 20260507143913 | 57 | 248 | 1.7 | 6.1 | 0.00 | 0.01 | 0.01 | 96 | 982.4 |
| 20260507142342 | 56 | 180 | 2.6 | 6.1 | 0.00 | 0.01 | 0.01 | 98 | 982.0 |
| 20260507141832 | 56 | 248 | 0.9 | 5.2 | 0.00 | 0.01 | 0.01 | 99 | 982.0 |
| 20260507141323 | 57 | 180 | 0.9 | 5.2 | 0.00 | 0.01 | 0.01 | 99 | 982.1 |
| 20260507140813 | 57 | 135 | 1.7 | 6.1 | 0.00 | 0.01 | 0.01 | 99 | 981.9 |
| 20260507140302 | 57 | 203 | 1.7 | 6.1 | 0.00 | 0.01 | 0.01 | 99 | 981.8 |
| 20260507135243 | 56 | 158 | 0.9 | 9.6 | 0.00 | 0.01 | 0.01 | 99 | 982.0 |
| 20260507134731 | 56 | 180 | 1.7 | 9.6 | 0.00 | 0.01 | 0.01 | 99 | 982.1 |
| 20260507133711 | 56 | 158 | 1.7 | 7.8 | 0.00 | 0.01 | 0.01 | 99 | 981.8 |
| 20260507133201 | 56 | 158 | 2.6 | 7.8 | 0.01 | 0.01 | 0.01 | 99 | 981.9 |
| 20260507132652 | 56 | 203 | 1.7 | 7.0 | 0.01 | 0.01 | 0.01 | 99 | 981.6 |
| 20260507132142 | 56 | 203 | 1.7 | 9.6 | 0.01 | 0.01 | 0.01 | 99 | 981.9 |
| 20260507131631 | 56 | 180 | 3.5 | 9.6 | 0.01 | 0.01 | 0.01 | 99 | 982.0 |
| 20260507131120 | 56 | 135 | 4.3 | 7.0 | 0.01 | 0.01 | 0.01 | 99 | 982.2 |
| 20260507130611 | 55 | 203 | 0.9 | 5.2 | 0.01 | 0.01 | 0.01 | 99 | 981.8 |
| 20260507130109 | 55 | 158 | 0.9 | 3.5 | 0.01 | 0.01 | 0.01 | 99 | 981.8 |
| 20260507125040 | 55 | 225 | 0.9 | 7.0 | 0.01 | 0.01 | 0.01 | 99 | 981.5 |
| 20260507124530 | 55 | 225 | 1.7 | 7.0 | 0.01 | 0.01 | 0.01 | 99 | 982.0 |
| 20260507124020 | 55 | 225 | 0.0 | 7.0 | 0.01 | 0.01 | 0.01 | 99 | 981.9 |
| 20260507123511 | 55 | 180 | 2.6 | 7.0 | 0.00 | 0.00 | 0.00 | 99 | 982.2 |
| 20260507123000 | 55 | 248 | 3.5 | 5.2 | 0.00 | 0.00 | 0.00 | 99 | 982.3 |
| 20260507122449 | 55 | 248 | 1.7 | 5.2 | 0.00 | 0.00 | 0.00 | 99 | 982.4 |
| 20260507121940 | 55 | 248 | 1.7 | 7.0 | 0.00 | 0.00 | 0.00 | 99 | 982.6 |
| 20260507121429 | 55 | 248 | 1.7 | 7.0 | 0.00 | 0.00 | 0.00 | 99 | 982.8 |
| 20260507120920 | 55 | 203 | 0.9 | 6.1 | 0.00 | 0.00 | 0.00 | 99 | 982.7 |
| 20260507120410 | 55 | 225 | 0.9 | 3.5 | 0.00 | 0.00 | 0.00 | 99 | 982.3 |
| 20260507115900 | 55 | 270 | 1.7 | 6.1 | 0.00 | 0.00 | 0.00 | 99 | 982.5 |
| 20260507115349 | 55 | 158 | 1.7 | 6.1 | 0.00 | 0.00 | 0.00 | 99 | 982.1 |
| 20260507114840 | 55 | 248 | 0.9 | 7.0 | 0.00 | 0.00 | 0.00 | 99 | 981.9 |
| 20260507114334 | 55 | 225 | 2.6 | 7.0 | 0.00 | 0.00 | 0.00 | 99 | 981.8 |
| 20260507113819 | 55 | 248 | 0.9 | 5.2 | 0.00 | 0.00 | 0.00 | 99 | 981.8 |
| 20260507113308 | 55 | 203 | 1.7 | 6.1 | 0.00 | 0.00 | 0.00 | 99 | 982.0 |
| 20260507112800 | 55 | 270 | 0.9 | 6.1 | 0.00 | 0.00 | 0.00 | 99 | 982.0 |
| 20260507112249 | 54 | 158 | 1.7 | 9.6 | 0.00 | 0.00 | 0.00 | 99 | 982.1 |
| 20260507111739 | 54 | 225 | 0.9 | 9.6 | 0.00 | 0.00 | 0.00 | 99 | 982.1 |
| 20260507111228 | 54 | 225 | 3.5 | 9.6 | 0.00 | 0.00 | 0.00 | 99 | 982.1 |
| 20260507110719 | 54 | 225 | 0.9 | 6.1 | 0.00 | 0.00 | 0.00 | 99 | 981.9 |
| 20260507110209 | 54 | 180 | 0.9 | 7.8 | 0.00 | 0.00 | 0.00 | 99 | 982.1 |
| 20260507105658 | 54 | 225 | 0.9 | 7.8 | 0.00 | 0.00 | 0.00 | 99 | 982.3 |
| 20260507105149 | 54 | 203 | 1.7 | 9.6 | 0.00 | 0.00 | 0.00 | 99 | 982.3 |
| 20260507104638 | 54 | 248 | 1.7 | 9.6 | 0.00 | 0.00 | 0.00 | 99 | 982.4 |
| 20260507104127 | 54 | 180 | 1.7 | 9.6 | 0.00 | 0.00 | 0.00 | 99 | 982.2 |
| 20260507103618 | 54 | 248 | 1.7 | 9.6 | 0.00 | 0.00 | 0.00 | 99 | 982.3 |
| 20260507103107 | 54 | 293 | 1.7 | 5.2 | 0.00 | 0.00 | 0.00 | 99 | 982.4 |
| 20260507102557 | 54 | 248 | 0.9 | 5.2 | 0.00 | 0.00 | 0.00 | 99 | 982.3 |
| 20260507102047 | 54 | 248 | 0.9 | 5.2 | 0.00 | 0.00 | 0.00 | 99 | 982.5 |
| 20260507101536 | 54 | 270 | 2.6 | 5.2 | 0.00 | 0.00 | 0.00 | 99 | 982.2 |
| 20260507101027 | 54 | 248 | 2.6 | 7.8 | 0.00 | 0.00 | 0.00 | 99 | 982.1 |
| 20260507100007 | 54 | 203 | 2.6 | 7.8 | 0.00 | 0.00 | 0.00 | 99 | 982.5 |
| 20260507095457 | 54 | 225 | 1.7 | 7.0 | 0.00 | 0.00 | 0.00 | 99 | 982.4 |
| 20260507094947 | 54 | 248 | 1.7 | 6.1 | 0.00 | 0.00 | 0.00 | 99 | 982.5 |
| 20260507094434 | 54 | 225 | 0.9 | 6.1 | 0.00 | 0.00 | 0.00 | 99 | 982.8 |
| 20260507093926 | 54 | 270 | 1.7 | 7.8 | 0.00 | 0.00 | 0.00 | 99 | 982.9 |
| 20260507093416 | 54 | 203 | 1.7 | 7.8 | 0.00 | 0.00 | 0.00 | 99 | 983.1 |
| 20260507092356 | 54 | 180 | 4.3 | 6.1 | 0.00 | 0.00 | 0.00 | 99 | 982.9 |
| 20260507091845 | 54 | 225 | 2.6 | 7.0 | 0.00 | 0.00 | 0.00 | 99 | 983.3 |
| 20260507091336 | 54 | 225 | 1.7 | 7.8 | 0.00 | 0.00 | 0.00 | 99 | 983.0 |
| 20260507090316 | 54 | 180 | 2.6 | 9.6 | 0.00 | 0.00 | 0.00 | 99 | 983.2 |
| 20260507085806 | 54 | 248 | 0.9 | 7.0 | 0.00 | 0.00 | 0.00 | 99 | 983.1 |
| 20260507085255 | 54 | 270 | 1.7 | 7.0 | 0.00 | 0.00 | 0.00 | 99 | 982.9 |
| 20260507084235 | 54 | 158 | 1.7 | 7.8 | 0.00 | 0.00 | 0.00 | 99 | 983.3 |
| 20260507083724 | 54 | 248 | 1.7 | 9.6 | 0.00 | 0.00 | 0.00 | 99 | 983.0 |
| 20260507082704 | 54 | 225 | 3.5 | 9.6 | 0.00 | 0.00 | 0.00 | 99 | 983.2 |
| 20260507082155 | 54 | 270 | 2.6 | 9.6 | 0.00 | 0.00 | 0.00 | 99 | 983.3 |
| 20260507081644 | 54 | 203 | 1.7 | 9.6 | 0.00 | 0.00 | 0.00 | 99 | 983.4 |
| 20260507081134 | 54 | 270 | 3.5 | 7.8 | 0.00 | 0.00 | 0.00 | 99 | 983.5 |
| 20260507075603 | 54 | 293 | 1.7 | 14.8 | 0.00 | 0.60 | 0.00 | 99 | 983.3 |
| 20260507075052 | 54 | 180 | 1.7 | 14.8 | 0.00 | 0.60 | 0.00 | 99 | 982.9 |
| 20260507074541 | 54 | 270 | 1.7 | 11.3 | 0.00 | 0.60 | 0.00 | 99 | 982.7 |
| 20260507074032 | 54 | 248 | 5.2 | 11.3 | 0.00 | 0.60 | 0.00 | 99 | 982.5 |
| 20260507073523 | 54 | 203 | 4.3 | 9.6 | 0.00 | 0.60 | 0.00 | 99 | 982.6 |
| 20260507073012 | 54 | 293 | 5.2 | 9.6 | 0.00 | 0.60 | 0.00 | 99 | 983.2 |
| 20260507072501 | 54 | 293 | 3.5 | 7.0 | 0.00 | 0.60 | 0.00 | 99 | 983.2 |
| 20260507071951 | 54 | 293 | 3.5 | 7.0 | 0.00 | 0.60 | 0.00 | 99 | 983.0 |
| 20260507071441 | 54 | 293 | 3.5 | 7.0 | 0.00 | 0.60 | 0.00 | 99 | 982.7 |
| 20260507070933 | 54 | 293 | 3.5 | 6.1 | 0.00 | 0.60 | 0.00 | 99 | 982.7 |
| 20260507070424 | 54 | 315 | 3.5 | 5.2 | 0.00 | 0.60 | 0.00 | 99 | 982.6 |
| 20260507065910 | 54 | 293 | 2.6 | 5.2 | 0.00 | 0.60 | 0.00 | 99 | 982.8 |
| 20260507065400 | 54 | 248 | 1.7 | 3.5 | 0.00 | 0.60 | 0.00 | 99 | 982.7 |
| 20260507064850 | 54 | 293 | 1.7 | 3.5 | 0.00 | 0.60 | 0.00 | 99 | 982.8 |
| 20260507063831 | 54 | 270 | 0.9 | 5.2 | 0.00 | 0.60 | 0.00 | 99 | 983.3 |
| 20260507063320 | 54 | 270 | 1.7 | 5.2 | 0.00 | 0.60 | 0.00 | 99 | 983.0 |
| 20260507062811 | 54 | 270 | 1.7 | 3.5 | 0.00 | 0.60 | 0.00 | 99 | 982.7 |
| 20260507062301 | 54 | 225 | 0.9 | 1.7 | 0.00 | 0.60 | 0.00 | 99 | 982.6 |
| 20260507061749 | 54 | 225 | 0.0 | 1.7 | 0.00 | 0.60 | 0.00 | 99 | 982.5 |
| 20260507061239 | 54 | 203 | 0.9 | 3.5 | 0.00 | 0.60 | 0.00 | 99 | 982.4 |
| 20260507060730 | 54 | 68 | 0.9 | 3.5 | 0.00 | 0.60 | 0.00 | 99 | 982.5 |
| 20260507060220 | 54 | 135 | 1.7 | 1.7 | 0.00 | 0.60 | 0.00 | 99 | 982.0 |
| 20260507055200 | 54 | 180 | 0.0 | 1.7 | 0.00 | 0.60 | 0.00 | 99 | 981.8 |
| 20260507054139 | 54 | 135 | 0.9 | 3.5 | 0.00 | 0.60 | 0.00 | 99 | 981.9 |
| 20260507053629 | 54 | 180 | 1.7 | 5.2 | 0.00 | 0.60 | 0.00 | 99 | 982.0 |
| 20260507053119 | 54 | 158 | 1.7 | 5.2 | 0.00 | 0.60 | 0.00 | 99 | 981.7 |
| 20260507052609 | 54 | 158 | 1.7 | 3.5 | 0.00 | 0.60 | 0.00 | 99 | 981.8 |
| 20260507052059 | 54 | 158 | 1.7 | 5.2 | 0.00 | 0.60 | 0.00 | 99 | 981.9 |
| 20260507051548 | 54 | 135 | 0.0 | 5.2 | 0.00 | 0.60 | 0.00 | 99 | 982.4 |
| 20260507051038 | 54 | 158 | 1.7 | 3.5 | 0.00 | 0.60 | 0.00 | 99 | 982.6 |
| 20260507050018 | 55 | 158 | 0.0 | 3.5 | 0.00 | 0.60 | 0.00 | 99 | 982.8 |
| 20260507045509 | 55 | 180 | 0.9 | 3.5 | 0.00 | 0.60 | 0.00 | 99 | 983.0 |
| 20260507044958 | 55 | 248 | 1.7 | 3.5 | 0.00 | 0.60 | 0.00 | 99 | 982.7 |
| 20260507044449 | 55 | 158 | 0.0 | 5.2 | 0.00 | 0.60 | 0.00 | 99 | 982.6 |
| 20260507043937 | 55 | 158 | 1.7 | 6.1 | 0.00 | 0.60 | 0.00 | 99 | 982.1 |
| 20260507043427 | 55 | 158 | 1.7 | 6.1 | 0.00 | 0.60 | 0.00 | 99 | 982.0 |
| 20260507042917 | 55 | 135 | 2.6 | 9.6 | 0.00 | 0.60 | 0.00 | 99 | 982.0 |
| 20260507042408 | 55 | 180 | 3.5 | 9.6 | 0.00 | 0.60 | 0.00 | 99 | 981.9 |
| 20260507041858 | 55 | 158 | 5.2 | 7.8 | 0.00 | 0.60 | 0.00 | 99 | 982.7 |
| 20260507040837 | 55 | 158 | 4.3 | 13.9 | 0.00 | 0.60 | 0.00 | 99 | 982.6 |
| 20260507040327 | 55 | 203 | 1.7 | 13.9 | 0.00 | 0.60 | 0.00 | 99 | 982.7 |
| 20260507035818 | 55 | 158 | 9.6 | 14.8 | 0.00 | 0.60 | 0.00 | 99 | 982.1 |
| 20260507035308 | 55 | 158 | 9.6 | 14.8 | 0.00 | 0.60 | 0.00 | 99 | 982.0 |
| 20260507034757 | 55 | 135 | 8.7 | 14.8 | 0.00 | 0.60 | 0.00 | 99 | 981.6 |
| 20260507034247 | 55 | 180 | 8.7 | 13.9 | 0.00 | 0.60 | 0.00 | 99 | 981.9 |
| 20260507033736 | 55 | 180 | 9.6 | 17.4 | 0.00 | 0.60 | 0.00 | 99 | 981.8 |
| 20260507033226 | 55 | 180 | 12.2 | 20.0 | 0.00 | 0.60 | 0.00 | 99 | 982.0 |
| 20260507032717 | 55 | 158 | 11.3 | 20.0 | 0.00 | 0.60 | 0.00 | 99 | 982.2 |
| 20260507032206 | 55 | 158 | 11.3 | 17.4 | 0.00 | 0.60 | 0.00 | 99 | 982.2 |
| 20260507031656 | 55 | 158 | 10.4 | 17.4 | 0.00 | 0.60 | 0.00 | 99 | 982.1 |
| 20260507031146 | 55 | 158 | 6.1 | 14.8 | 0.00 | 0.60 | 0.00 | 99 | 981.8 |
| 20260507030636 | 55 | 158 | 7.8 | 14.8 | 0.00 | 0.60 | 0.00 | 99 | 981.8 |
| 20260507030126 | 55 | 158 | 9.6 | 14.8 | 0.00 | 0.60 | 0.00 | 99 | 981.8 |
| 20260507025617 | 55 | 158 | 7.0 | 13.0 | 0.00 | 0.60 | 1.54 | 99 | 981.7 |
| 20260507024555 | 55 | 180 | 3.5 | 13.0 | 0.00 | 0.60 | 1.54 | 99 | 982.0 |
| 20260507024045 | 55 | 158 | 7.0 | 14.8 | 0.00 | 0.60 | 1.54 | 99 | 981.9 |